AIC127 LOWW-KORD

Flight info

Callsign AIC127
Flight time N/A
Altitude 36000
Route MEDIX DCT LAMSI DCT RUDNO DCT ZUCKA DCT ATTUS P992 BAVTA DCT MITSI DCT BAXOL/N0493F380 DCT RIGVU DCT BAMRA DCT BILLY DCT ATSIX/M085F380 DCT 61N015W 61N020W 61N030W 62N040W 62N050W/M084F400 62N055W DCT MAXAR/N0495F400 DCT RODBO DCT 53N072W 52N074W DCT GRAMP DCT BAFAL DCT JARRO DCT SSM WYNDE2
Aircraft A359/H-SDE2E3GHIJ3J4J5LM1ORWXY/LB1D1

Departure

Time N/A
Airport Vienna International Airport (LOWW)

Arrival

Time 2026-05-07 00:03
Airport Chicago O'Hare International Airport (KORD)
Time Latitude Longitude Altitude Speed Heading
2026-05-06 22:39 49.24776 -81.09963 39901 ft 466 kts 240°
2026-05-06 22:39 49.23115 -81.14229 39893 ft 468 kts 240°
2026-05-06 22:39 49.19769 -81.22804 39888 ft 470 kts 240°
2026-05-06 22:40 49.16414 -81.31374 39894 ft 469 kts 240°
2026-05-06 22:40 49.13055 -81.39924 39895 ft 469 kts 239°
2026-05-06 22:41 49.08012 -81.52712 39895 ft 469 kts 239°
2026-05-06 22:42 49.04641 -81.61226 39902 ft 469 kts 239°
2026-05-06 22:42 49.01259 -81.69739 39897 ft 470 kts 239°
2026-05-06 22:43 48.97890 -81.78193 39898 ft 469 kts 239°
2026-05-06 22:43 48.94503 -81.86661 39897 ft 468 kts 239°
2026-05-06 22:44 48.90554 -81.94532 39896 ft 469 kts 231°
2026-05-06 22:44 48.86222 -82.01970 39900 ft 470 kts 229°
2026-05-06 22:45 48.81827 -82.09316 39900 ft 470 kts 229°
2026-05-06 22:45 48.77430 -82.16654 39901 ft 470 kts 229°
2026-05-06 22:46 48.73038 -82.23993 39901 ft 471 kts 229°
2026-05-06 22:46 48.68638 -82.31338 39900 ft 471 kts 229°
2026-05-06 22:47 48.64238 -82.38664 39903 ft 471 kts 229°
2026-05-06 22:47 48.59828 -82.45986 39903 ft 471 kts 229°
2026-05-06 22:48 48.55417 -82.53288 39902 ft 471 kts 229°
2026-05-06 22:48 48.50995 -82.60586 39903 ft 471 kts 229°
2026-05-06 22:49 48.46570 -82.67872 39907 ft 471 kts 229°
2026-05-06 22:49 48.42163 -82.75107 39895 ft 472 kts 229°
2026-05-06 22:50 48.37722 -82.82376 39904 ft 471 kts 229°
2026-05-06 22:50 48.33283 -82.89623 39905 ft 471 kts 229°
2026-05-06 22:51 48.29559 -82.95686 39909 ft 471 kts 229°
2026-05-06 22:51 48.25112 -83.02909 39908 ft 471 kts 229°
2026-05-06 22:52 48.20660 -83.10122 39906 ft 470 kts 229°
2026-05-06 22:52 48.16215 -83.17300 39926 ft 469 kts 229°
2026-05-06 22:53 48.11768 -83.24464 39914 ft 470 kts 229°
2026-05-06 22:53 48.07341 -83.31579 39906 ft 470 kts 229°
2026-05-06 22:54 48.02815 -83.38731 39895 ft 471 kts 226°
2026-05-06 22:54 47.97546 -83.44462 39931 ft 476 kts 210°
2026-05-06 22:55 47.91448 -83.48388 39936 ft 479 kts 204°
2026-05-06 22:55 47.85210 -83.51899 39943 ft 480 kts 204°
2026-05-06 22:56 47.78962 -83.55368 39943 ft 479 kts 204°
2026-05-06 22:56 47.72740 -83.58866 39952 ft 478 kts 204°
2026-05-06 22:57 47.66530 -83.62379 39955 ft 477 kts 204°
2026-05-06 22:57 47.60322 -83.65889 39951 ft 477 kts 204°
2026-05-06 22:58 47.54120 -83.69385 39958 ft 477 kts 204°
2026-05-06 22:58 47.47921 -83.72869 39961 ft 477 kts 204°
2026-05-06 22:59 47.41715 -83.76347 39945 ft 477 kts 205°
2026-05-06 22:59 47.35552 -83.79792 39967 ft 476 kts 205°
2026-05-06 23:00 47.29357 -83.83247 39953 ft 476 kts 205°
2026-05-06 23:00 47.23158 -83.86695 39951 ft 476 kts 205°
2026-05-06 23:01 47.16966 -83.90131 39969 ft 475 kts 205°
2026-05-06 23:01 47.10781 -83.93554 39965 ft 475 kts 205°
2026-05-06 23:02 47.04595 -83.96969 39965 ft 475 kts 205°
2026-05-06 23:02 46.98412 -84.00374 39963 ft 474 kts 205°
2026-05-06 23:03 46.92246 -84.03761 39966 ft 473 kts 205°
2026-05-06 23:03 46.86087 -84.07137 39966 ft 473 kts 205°
2026-05-06 23:04 46.79932 -84.10502 39957 ft 473 kts 205°
2026-05-06 23:04 46.73773 -84.13860 39971 ft 472 kts 205°
2026-05-06 23:05 46.67624 -84.17205 39971 ft 472 kts 205°
2026-05-06 23:05 46.61475 -84.20542 39972 ft 472 kts 205°
2026-05-06 23:06 46.55366 -84.23849 39968 ft 472 kts 205°
2026-05-06 23:06 46.49218 -84.27170 39971 ft 472 kts 205°
2026-05-06 23:07 46.43067 -84.30483 39970 ft 472 kts 205°
2026-05-06 23:07 46.36720 -84.33078 39974 ft 475 kts 198°
2026-05-06 23:08 46.30284 -84.35292 39976 ft 475 kts 198°
2026-05-06 23:08 46.23851 -84.37508 39979 ft 475 kts 198°
2026-05-06 23:09 46.17430 -84.39722 39980 ft 474 kts 199°
2026-05-06 23:09 46.11056 -84.41916 39981 ft 474 kts 199°
2026-05-06 23:10 46.04644 -84.44119 39980 ft 474 kts 199°
2026-05-06 23:10 45.98229 -84.46319 39975 ft 474 kts 199°
2026-05-06 23:11 45.91817 -84.48512 39974 ft 474 kts 199°
2026-05-06 23:11 45.85403 -84.50700 39972 ft 474 kts 199°
2026-05-06 23:12 45.78993 -84.52882 39966 ft 473 kts 199°
2026-05-06 23:12 45.72591 -84.55056 39971 ft 473 kts 199°
2026-05-06 23:13 45.66186 -84.57226 39978 ft 473 kts 199°
2026-05-06 23:13 45.59784 -84.59389 39977 ft 473 kts 199°
2026-05-06 23:14 45.53383 -84.61548 39989 ft 472 kts 199°
2026-05-06 23:14 45.46987 -84.63700 39989 ft 472 kts 199°
2026-05-06 23:15 45.40593 -84.65846 39988 ft 472 kts 199°
2026-05-06 23:15 45.34210 -84.67983 39991 ft 471 kts 199°
2026-05-06 23:16 45.27824 -84.70117 39991 ft 471 kts 199°
2026-05-06 23:16 45.21444 -84.72248 39989 ft 471 kts 199°
2026-05-06 23:17 45.15107 -84.74352 39991 ft 471 kts 199°
2026-05-06 23:17 45.08732 -84.76467 39962 ft 471 kts 199°
2026-05-06 23:18 45.02363 -84.78574 39958 ft 469 kts 199°
2026-05-06 23:18 44.96012 -84.80671 39993 ft 469 kts 199°
2026-05-06 23:19 44.89660 -84.82765 39966 ft 469 kts 199°
2026-05-06 23:19 44.83315 -84.84851 39953 ft 468 kts 200°
2026-05-06 23:20 44.76977 -84.86930 39950 ft 467 kts 200°
2026-05-06 23:20 44.70643 -84.89004 39947 ft 467 kts 199°
2026-05-06 23:21 44.64313 -84.91072 39946 ft 467 kts 199°
2026-05-06 23:21 44.57977 -84.93137 39952 ft 467 kts 199°
2026-05-06 23:22 44.51644 -84.95196 39962 ft 467 kts 199°
2026-05-06 23:22 44.45309 -84.97251 39966 ft 467 kts 200°
2026-05-06 23:23 44.38980 -84.99299 39970 ft 467 kts 200°
2026-05-06 23:23 44.32654 -85.01342 39968 ft 467 kts 200°
2026-05-06 23:24 44.26330 -85.03380 39970 ft 466 kts 200°
2026-05-06 23:24 44.20011 -85.05412 39981 ft 466 kts 200°
2026-05-06 23:25 44.13717 -85.07432 39906 ft 466 kts 200°
2026-05-06 23:25 44.10529 -85.08453 39465 ft 466 kts 200°
2026-05-06 23:25 44.07368 -85.09464 38911 ft 466 kts 200°
2026-05-06 23:25 44.04211 -85.10479 38168 ft 466 kts 200°
2026-05-06 23:26 44.01054 -85.11485 37354 ft 466 kts 200°
2026-05-06 23:26 43.97887 -85.12491 36570 ft 466 kts 201°
2026-05-06 23:26 43.94728 -85.13495 35809 ft 466 kts 201°
2026-05-06 23:26 43.91569 -85.14497 35019 ft 465 kts 201°
2026-05-06 23:27 43.88430 -85.15491 34346 ft 461 kts 202°
2026-05-06 23:27 43.85312 -85.16479 33555 ft 459 kts 202°
2026-05-06 23:27 43.82202 -85.17464 32715 ft 457 kts 202°
2026-05-06 23:27 43.79161 -85.18424 32186 ft 449 kts 202°
2026-05-06 23:28 43.76158 -85.19366 32005 ft 437 kts 202°
2026-05-06 23:28 43.70248 -85.21238 31966 ft 436 kts 203°
2026-05-06 23:29 43.64340 -85.23114 31979 ft 435 kts 203°
2026-05-06 23:29 43.58436 -85.24970 31979 ft 435 kts 203°
2026-05-06 23:30 43.52531 -85.26823 31931 ft 435 kts 203°
2026-05-06 23:30 43.46621 -85.28674 31986 ft 436 kts 203°
2026-05-06 23:31 43.40707 -85.30524 31987 ft 436 kts 203°
2026-05-06 23:31 43.34792 -85.32371 31985 ft 436 kts 203°
2026-05-06 23:32 43.28872 -85.34215 31983 ft 436 kts 203°
2026-05-06 23:32 43.22949 -85.36056 31989 ft 436 kts 203°
2026-05-06 23:33 43.17027 -85.37896 31988 ft 436 kts 203°
2026-05-06 23:33 43.11101 -85.39731 31980 ft 437 kts 204°
2026-05-06 23:34 43.05177 -85.41559 31991 ft 436 kts 204°
2026-05-06 23:34 42.99254 -85.43385 31995 ft 436 kts 203°
2026-05-06 23:35 42.93342 -85.45204 31989 ft 435 kts 203°
2026-05-06 23:35 42.87430 -85.47021 31981 ft 436 kts 204°
2026-05-06 23:36 42.81806 -85.49588 31980 ft 415 kts 218°
2026-05-06 23:36 42.79454 -85.51755 31980 ft 403 kts 227°
2026-05-06 23:36 42.77503 -85.54418 31981 ft 394 kts 236°
2026-05-06 23:37 42.74896 -85.60821 31983 ft 385 kts 253°
2026-05-06 23:37 42.74138 -85.68001 31985 ft 387 kts 269°
2026-05-06 23:38 42.74938 -85.75294 31989 ft 390 kts 274°
2026-05-06 23:38 42.75059 -85.81374 32000 ft 386 kts 263°
2026-05-06 23:39 42.73837 -85.88446 32000 ft 386 kts 250°
2026-05-06 23:39 42.71339 -85.94941 31999 ft 389 kts 244°
2026-05-06 23:40 42.69297 -86.01686 32000 ft 385 kts 255°
2026-05-06 23:40 42.67975 -86.08739 31999 ft 385 kts 256°
2026-05-06 23:41 42.66677 -86.15804 32000 ft 385 kts 256°
2026-05-06 23:41 42.65371 -86.22875 32000 ft 387 kts 256°
2026-05-06 23:42 42.64045 -86.30027 31692 ft 398 kts 256°
2026-05-06 23:42 42.63366 -86.33674 31098 ft 399 kts 256°
2026-05-06 23:42 42.62684 -86.37330 30452 ft 400 kts 256°
2026-05-06 23:42 42.61999 -86.40989 29754 ft 400 kts 256°
2026-05-06 23:43 42.61316 -86.44637 28990 ft 398 kts 256°
2026-05-06 23:43 42.60638 -86.48254 28258 ft 393 kts 256°
2026-05-06 23:43 42.59975 -86.51781 27531 ft 386 kts 256°
2026-05-06 23:43 42.59326 -86.55229 26760 ft 368 kts 256°
2026-05-06 23:44 42.58699 -86.58554 26039 ft 350 kts 256°
2026-05-06 23:44 42.58110 -86.61673 25314 ft 334 kts 255°
2026-05-06 23:44 42.57553 -86.64618 24613 ft 319 kts 255°
2026-05-06 23:44 42.57012 -86.67474 23929 ft 306 kts 255°
2026-05-06 23:45 42.56491 -86.70216 23125 ft 295 kts 255°
2026-05-06 23:45 42.55926 -86.72838 22320 ft 285 kts 252°
2026-05-06 23:45 42.55279 -86.75332 21537 ft 276 kts 251°
2026-05-06 23:45 42.54627 -86.77745 20771 ft 269 kts 250°
2026-05-06 23:46 42.53989 -86.80099 20022 ft 263 kts 250°
2026-05-06 23:46 42.53364 -86.82404 19289 ft 258 kts 250°
2026-05-06 23:46 42.52749 -86.84670 18587 ft 254 kts 250°
2026-05-06 23:46 42.52144 -86.86903 17806 ft 251 kts 250°
2026-05-06 23:47 42.51544 -86.89110 17014 ft 248 kts 250°
2026-05-06 23:47 42.50949 -86.91298 16228 ft 246 kts 251°
2026-05-06 23:47 42.50359 -86.93467 15458 ft 245 kts 251°
2026-05-06 23:47 42.49722 -86.95615 14716 ft 250 kts 246°
2026-05-06 23:48 42.48749 -86.97633 14102 ft 262 kts 233°
2026-05-06 23:48 42.47455 -86.99399 13562 ft 266 kts 228°
2026-05-06 23:48 42.46076 -87.01077 13116 ft 266 kts 226°
2026-05-06 23:48 42.44675 -87.02739 12809 ft 269 kts 226°
2026-05-06 23:49 42.43266 -87.04401 12508 ft 268 kts 226°
2026-05-06 23:49 42.41857 -87.06055 12190 ft 267 kts 225°
2026-05-06 23:49 42.40454 -87.07701 11880 ft 267 kts 225°
2026-05-06 23:49 42.39049 -87.09347 11575 ft 267 kts 225°
2026-05-06 23:50 42.37647 -87.10988 11257 ft 267 kts 225°
2026-05-06 23:50 42.34862 -87.14243 10637 ft 266 kts 225°
2026-05-06 23:50 42.33446 -87.15897 10327 ft 266 kts 224°
2026-05-06 23:51 42.32048 -87.17529 10036 ft 266 kts 224°
2026-05-06 23:51 42.30668 -87.19139 9731 ft 266 kts 224°
2026-05-06 23:51 42.29271 -87.20766 9407 ft 265 kts 224°
2026-05-06 23:51 42.27874 -87.22392 9087 ft 265 kts 224°
2026-05-06 23:52 42.26481 -87.24014 8755 ft 264 kts 224°
2026-05-06 23:52 42.25093 -87.25628 8439 ft 263 kts 224°
2026-05-06 23:52 42.23707 -87.27240 8107 ft 263 kts 224°
2026-05-06 23:52 42.22324 -87.28846 7804 ft 262 kts 224°
2026-05-06 23:53 42.20944 -87.30449 7497 ft 262 kts 224°
2026-05-06 23:53 42.19566 -87.32048 7197 ft 261 kts 224°
2026-05-06 23:53 42.18190 -87.33645 6899 ft 261 kts 224°
2026-05-06 23:53 42.16812 -87.35243 6588 ft 262 kts 225°
2026-05-06 23:54 42.15435 -87.36839 6272 ft 261 kts 224°
2026-05-06 23:54 42.14060 -87.38430 5954 ft 260 kts 225°
2026-05-06 23:54 42.12691 -87.40014 5638 ft 259 kts 224°
2026-05-06 23:54 42.11329 -87.41590 5329 ft 258 kts 224°
2026-05-06 23:55 42.09971 -87.43159 5016 ft 257 kts 224°
2026-05-06 23:55 42.08619 -87.44720 4718 ft 256 kts 224°
2026-05-06 23:55 42.07269 -87.46280 4388 ft 255 kts 225°
2026-05-06 23:55 42.05923 -87.47833 4079 ft 255 kts 224°
2026-05-06 23:56 42.04580 -87.49381 3769 ft 254 kts 225°
2026-05-06 23:56 42.03241 -87.50925 3470 ft 253 kts 225°
2026-05-06 23:56 42.01908 -87.52460 3151 ft 252 kts 224°
2026-05-06 23:56 42.00583 -87.53985 3017 ft 250 kts 225°
2026-05-06 23:57 41.99258 -87.55510 3009 ft 250 kts 225°
2026-05-06 23:57 41.97993 -87.57055 3004 ft 247 kts 231°
2026-05-06 23:57 41.97161 -87.59022 3010 ft 241 kts 254°
2026-05-06 23:57 41.96873 -87.61211 3010 ft 235 kts 270°
2026-05-06 23:58 41.96902 -87.63318 3009 ft 216 kts 273°
2026-05-06 23:58 41.96942 -87.65251 3020 ft 201 kts 271°
2026-05-06 23:58 41.96946 -87.67135 3015 ft 198 kts 271°
2026-05-06 23:58 41.96941 -87.68963 3009 ft 198 kts 271°
2026-05-06 23:59 41.96933 -87.70782 3018 ft 188 kts 271°
2026-05-06 23:59 41.96926 -87.72442 3030 ft 167 kts 272°
2026-05-06 23:59 41.96924 -87.73951 2858 ft 157 kts 272°
2026-05-06 23:59 41.96924 -87.75387 2632 ft 150 kts 272°
2026-05-07 00:00 41.96921 -87.76758 2422 ft 144 kts 272°
2026-05-07 00:00 41.96919 -87.78068 2215 ft 137 kts 273°
2026-05-07 00:00 41.96918 -87.79321 2038 ft 130 kts 272°
2026-05-07 00:00 41.96916 -87.80490 1860 ft 120 kts 273°
2026-05-07 00:01 41.96915 -87.81591 1718 ft 117 kts 273°
2026-05-07 00:01 41.96914 -87.82700 1529 ft 121 kts 272°
2026-05-07 00:01 41.96911 -87.83843 1358 ft 124 kts 274°
2026-05-07 00:01 41.96909 -87.85001 1184 ft 124 kts 273°
2026-05-07 00:02 41.96910 -87.86136 1015 ft 119 kts 275°
2026-05-07 00:02 41.96914 -87.87240 795 ft 118 kts 272°
2026-05-07 00:02 41.96905 -87.88329 696 ft 118 kts 272°
2026-05-07 00:02 41.96909 -87.89404 672 ft 104 kts 271°
2026-05-07 00:03 41.96909 -87.90225 673 ft 73 kts 270°
2026-05-07 00:03 41.96908 -87.90678 672 ft 40 kts 271°
2026-05-07 00:03 41.96908 -87.91015 677 ft 32 kts 270°
2026-05-07 00:03 41.96946 -87.91264 677 ft 25 kts 316°
2026-05-07 00:04 41.97031 -87.91269 679 ft 7 kts 62°
2026-05-07 00:04 41.97041 -87.91182 680 ft 13 kts 87°
2026-05-07 00:04 41.97041 -87.91045 677 ft 18 kts 90°
2026-05-07 00:04 41.97040 -87.90852 673 ft 23 kts 90°
2026-05-07 00:05 41.97041 -87.90632 672 ft 19 kts 90°
2026-05-07 00:05 41.97041 -87.90437 671 ft 23 kts 90°
2026-05-07 00:05 41.97043 -87.90221 673 ft 21 kts 89°
2026-05-07 00:05 41.97043 -87.90015 676 ft 23 kts 90°
2026-05-07 00:06 41.97043 -87.89789 676 ft 25 kts 90°
2026-05-07 00:06 41.97043 -87.89544 675 ft 26 kts 90°
2026-05-07 00:06 41.97044 -87.89291 670 ft 25 kts 90°
2026-05-07 00:06 41.97053 -87.89093 666 ft 3 kts 60°
2026-05-07 00:07 41.97077 -87.89078 666 ft 6 kts 17°
2026-05-07 00:07 41.97145 -87.89070 665 ft 13 kts 358°
2026-05-07 00:07 41.97239 -87.89095 667 ft 13 kts
2026-05-07 00:07 41.97327 -87.89083 668 ft 12 kts
2026-05-07 00:08 41.97359 -87.89083 668 ft 0 kts
2026-05-07 00:10 41.97358 -87.89083 668 ft 0 kts
2026-05-07 00:16 41.97357 -87.89083 668 ft 0 kts
2026-05-07 00:23 41.97356 -87.89083 668 ft 0 kts
2026-05-07 00:29 41.97355 -87.89083 668 ft 0 kts
2026-05-07 00:35 41.97354 -87.89083 668 ft 0 kts
2026-05-07 00:41 41.97353 -87.89083 668 ft 0 kts
2026-05-07 00:48 41.97352 -87.89083 668 ft 0 kts